Weather in Omuta

Japan     33°02′41″N   130°27′39″E
temp.,
°C
wind,
m/s
gust,
m/s
humid.,
%
clouds,
%
prec.,
mm/h
press.,
hPa
HPBL,
m
14 april, wed
wed1400:00+14wnw367598 0.0 1015483
03:00+12nw2470100 0.0 1014330
06:00+11nw2459100 0.0 1015383
09:00+13nw3454100 0.0 1016849
12:00+16wnw344453 0.0 10151242
15:00+16n77335 0.0 10151431
18:00+14n694667 0.0 10171339
21:00+12nne5105927 0.0 1018991
15 april, thu
thu1500:00+10n2366100 0.0 1019180
03:00+9nne2370100 0.0 1019127
06:00+9nne235794 0.0 1019106
09:00+13ne233249 0.0 1020589
12:00+18sw232132 0.0 10191056
15:00+18wsw453382 0.0 1018919
18:00+17sw234990 0.0 1018487
21:00+15sse115665 0.0 101926
16 april, fri
fri1600:00+14ese226366 0.0 101874
03:00+13ese1165100 0.0 101856
06:00+13sse1160100 0.0 101789
09:00+14se1255100 0.0 1018211
12:00+14s2453100 0.0 1017329
15:00+12se2376100 0.8 1017202
18:00+13se2385100 0.6 1017165
21:00+13ese118277 0.6 101845
17 april, sat
sat1700:00+13sse1182100 0.0 101853
03:00+13se1184100 0.0 101764
06:00+12se1183100 0.0 101761
09:00+16s23720 0.0 1018657
12:00+19sw47465 0.0 10171466
15:00+20w611431 0.0 10161899
18:00+17wnw683316 0.0 10171721
21:00+14wnw48360 0.0 1018863
18 april, sun
sun1800:00+13nw39450 0.0 1018690
03:00+11nw36450 0.0 1018330
06:00+10nw25450 0.0 1019346
09:00+14wnw57320 0.0 10201646
12:00+17wnw56290 0.0 10191885
15:00+18nw55280 0.0 10171871
18:00+16nw44330 0.0 10171366
21:00+13nnw23420 0.0 1019144